STARLINK-31632, 59326

Orbit data source: Space-Track

STARLINK-31632, 59326 is a payload satellite owned by SpaceX/Seattle (US) in LEO that was launched on Mon, 25 Mar 2024 UTC via an FALCON 9 launch vehicle from the Air Force Eastern Test Range (AFETR). Payload-class satellites include a variety of spacecraft equipped with specific instruments for various scientific and technological missions. These include communications satellites like Starlink; space stations such as the ISS; scientific satellites like the Hubble; Earth observation satellites from companies like Planet Labs, Umbra, and HawkEye 360; GPS; miniature CubeSats for education and research; and military/defense satellites.

Loading next visibility...
Identifier
59326, 2024-057G
Orbit
LEO
Country
Flag of USUS
Related business
Manufacturer
SpaceX/Seattle
Mission
Operational Commercial Communications
Bus & Motor
STARLINK V2M, Unknown motor
Mass
730 kg wet, ~700 kg dry
Launch date (UTC)
2024-03-25 (2 years ago)
Launch vehicle
FALCON 9
Launch site
Air Force Eastern Test Range (AFETR)
Object type
Payload
Rocket body
Debris
Shape & HBR
Box + 2 Pan, 17.7 m
Radar Cross Section
33.884 m², Large (>1 m²)

Expand to show TLE details & history
Last TLE update: 2 days ago

TLE from 2 days ago
0 STARLINK-31632
1 59326U 24057G   26171.44169345  .00002260  00000-0  91638-4 0  9997
2 59326  43.0037 338.0327 0000952 230.5198 129.5570 15.27577462125423
Epoch: 2026-06-20T10:36Z
TLE epoch observation values (Epoch: 2026-06-20T10:36:02.314Z)
Latitude
0.00003°
Longitude
-89.63318°
Altitude
483.248 km
Speed
7.625 km/s
True Right ascension
22h 32m 07s
True Declination
0° 00' 00"
Sunlit
Object was in daylight at epoch
Visualization orbit readout
Latitude
Unknown
Longitude
Unknown
Altitude
Unknown
Speed
Unknown
Apparent Right ascension
Unknown
Apparent Declination
Unknown
Sunlit
N/A
Visualization observer readout
Local Sidereal Time
21:28:46
Azimuth
Unknown
Elevation
Unknown
Doppler factor
Unknown
Orbital elements
Apogee altitude
485.655 km
Perigee altitude
484.348 km
Semi-major axis
6,863.138 km
Eccentricity
0.0001
Inclination
43.0037°
RAAN
338.0327°
Arg. of periapsis
230.5198°
True anomaly
129.56541°
Mean anomaly
129.557°
Eccentric anomaly
129.56121°
Mean motion
3.81732 °/min
Orbital period
94.31 mins
BSTAR
0.000091638
Loading maneuver chart data...
Computing Atmospheric mass density...
Loading historical data...
Loading historical data...
Loading historical data...
Loading historical data...
Loading historical data...
Loading historical data...
Loading historical data...

Documentation

Showing up to 5 results
|